sat.trackr.live / text

‹ back to catalog

STARLINK-32900

NORAD 63093 · 2025-037S

PAYLOAD ACTIVE UNKNOWN

§ Identity

Operator
Country
US
Launch date
2025-02-23
Launch site
AFWTR
Launch vehicle
Mass (kg)
RCS (m²)

Purposes: comms

External: N2YO · Heavens-Above · Gunter

§ Orbital elements

Epoch: 2026-05-25T03:12:53.470080Z

Period
96.11 min
Inclination
70.0004°
Eccentricity
0.0004078
Mean motion
14.98342139 rev/d
Perigee alt
569.2 km
Apogee alt
574.9 km
Semi-major
6,950.2 km
B*
1.2824e-4
RAAN
161.6711°
Arg perigee
270.1470°
Mean anomaly
89.9222°
Rev number
6,991

§ Raw data

STARLINK-329001 63093U 25037S   26145.13395220  .00001438  00000+0  12824-3 0  99962 63093  70.0004 161.6711 0004078 270.1470  89.9222 14.98342139 69918

JSON: /api/v1/satellites/63093 · /tle

For live sub-satellite position, see the globe view (requires WebGL).

§ Visibility from observer

Set your observer location to see the next 7 days of passes ≥ 10°. The values pass through the URL so the page stays shareable.

No JS? Fill the form by hand. The geolocation button needs JavaScript.